Retour au catalogue

RAPIDEYE 2

ActifScienceSSO
NORAD 33312·PAYLOAD·🇩🇪 Germany

Lancé Aug 29, 2008 depuis Baikonur Cosmodrome

Loading…

Prochains Passages (prochaines 24 heures)

TLE

FraisSource: Space-Track

Époque: Sep 14, 2026, 12:57 UTC

1 33312U 08040A   26257.53970266  .00001190  00000-0  86490-4 0  9996
2 33312  97.4203 283.9832 0016150 275.4442  84.4943 15.05576454979419

Suivez RAPIDEYE 2 en temps réel avec AllMySat

Download on the App Store